(193570) = 1996 RG28 = 2001 AR36

Discovered at Socorro on 2001-01-05 by LINEAR.

Orbit

Orbit type: Jupiter Trojan

Note: WebGL enabled browser required.

epoch2023-09-13.0
epoch JD2460200.5
perihelion date2013-02-02.99896
perihelion JD2456326.49896
argument of perihelion (°)153.16447
ascending node (°)323.55383
inclination (°)24.78944
eccentricity0.0881912
perihelion distance (AU)4.7505913
Tisserand w.r.t. Jupiter2.8
ΔV w.r.t. Earth (km/sec)14.3
semimajor axis (AU)5.2100740
mean anomaly (°)321.06853
mean daily motion (°/day)0.08287780
aphelion distance (AU)5.670
period (years)11.89
P-vector [x]-0.47431597
P-vector [y]0.71352967
P-vector [z]0.51565470
Q-vector [x]-0.84438252
Q-vector [y]-0.20300079
Q-vector [z]-0.49579113
absolute magnitude12.34
phase slope0.15
uncertainty0
referenceMPEC 2023-Y103
observations used602
oppositions17
arc length (days)9970
first opposition used1996
last opposition used2023
residual rms (arc-secs)0.64
perturbers coarse indicatorM-v
perturbers precise indicator003Ek
first observation date used1996-09-11.0
last observation date used2023-12-29.0
computer nameMPCLINUX
JD of orbit computation2456937.321286
perihelion JD uncertainty (days)8.6320E-04
argument of perihelion uncertainty (°)7.9472E-05
ascending node uncertainty (°)1.1447E-05
inclination uncertainty (°)1.1771E-05
eccentricity uncertainty 8.6979E-08
perihelion distance uncertainty (AU)4.5668E-07
Minimum Orbit Intersection Distances (in AU)
for orbit epoch: 2460200.5, reference: E2023-YA3
Mercury4.42448
Venus4.03892
Earth3.77939
Mars3.11451
Jupiter0.56155
Saturn4.23911
Uranus13.651
Neptune24.4643

Observations

611 total observations over interval: 1996 09 11.07639 – 2023 12 29.314480
These data are available for download (format description).

Date (UT) J2000 RA J2000 Dec Magn Location Ref
1996 09 11.07639 22 22 27.61 -01 06 16.5   809 – European Southern Observatory, La Silla MPC 29559
1996 09 15.20764 22 20 21.06 -01 11 11.0   809 – European Southern Observatory, La Silla MPC 29559
2000 12 19.39013 08 45 26.22 +32 12 27.1 19.0   704 – Lincoln Laboratory ETS, New Mexico MPS 25606
2000 12 19.40543 08 45 25.74 +32 12 27.8 19.2   704 – Lincoln Laboratory ETS, New Mexico MPS 25606
2000 12 19.43615 08 45 24.89 +32 12 28.5 19.4   704 – Lincoln Laboratory ETS, New Mexico MPS 25606
2001 01 05.31240 08 36 04.94 +32 23 49.2 18.9   704 – Lincoln Laboratory ETS, New Mexico MPS 25606
2001 01 05.32783 08 36 04.34 +32 23 49.7 18.8   704 – Lincoln Laboratory ETS, New Mexico MPS 25606
2001 01 05.34322 08 36 03.67 +32 23 50.5 18.7   704 – Lincoln Laboratory ETS, New Mexico MPS 25606
2001 01 05.35861 08 36 03.04 +32 23 51.7 18.5   704 – Lincoln Laboratory ETS, New Mexico MPS 25606
2001 01 05.37400 08 36 02.49 +32 23 51.2 19.1   704 – Lincoln Laboratory ETS, New Mexico MPS 25606
2001 01 06.30208 08 35 26.08 +32 24 11.0 18.9   704 – Lincoln Laboratory ETS, New Mexico MPS 25606
2001 01 06.31720 08 35 25.46 +32 24 11.1 19.1   704 – Lincoln Laboratory ETS, New Mexico MPS 25606
2001 01 06.33230 08 35 24.80 +32 24 12.0 19.2   704 – Lincoln Laboratory ETS, New Mexico MPS 25606
2001 01 18.30927 08 27 01.46 +32 24 08.1 18.5   704 – Lincoln Laboratory ETS, New Mexico MPS 25606
2001 01 18.32469 08 27 00.76 +32 24 07.2 19.0   704 – Lincoln Laboratory ETS, New Mexico MPS 25606
2001 01 18.34015 08 27 00.08 +32 24 08.0 18.8   704 – Lincoln Laboratory ETS, New Mexico MPS 25606
2001 01 18.35569 08 26 59.38 +32 24 07.3 18.7   704 – Lincoln Laboratory ETS, New Mexico MPS 25606
2001 01 18.37114 08 26 58.74 +32 24 06.9 19.2   704 – Lincoln Laboratory ETS, New Mexico MPS 25606
2001 02 16.17144 08 07 11.01 +31 40 47.2 18.9 R 699 – Lowell Observatory-LONEOS MPS 27921
2001 02 16.18718 08 07 10.54 +31 40 44.6   699 – Lowell Observatory-LONEOS MPS 27921
2001 02 16.20286 08 07 09.90 +31 40 42.3   699 – Lowell Observatory-LONEOS MPS 27921
2001 02 16.21852 08 07 09.44 +31 40 39.2   699 – Lowell Observatory-LONEOS MPS 27921
2001 02 16.22567 08 07 09.09 +31 40 38.5 18.7   704 – Lincoln Laboratory ETS, New Mexico MPS 26792
2001 02 16.23959 08 07 08.62 +31 40 35.3 18.8   704 – Lincoln Laboratory ETS, New Mexico MPS 26792
2001 02 16.25351 08 07 08.10 +31 40 33.7 18.8   704 – Lincoln Laboratory ETS, New Mexico MPS 26792
2001 02 16.26743 08 07 07.63 +31 40 31.7 18.9   704 – Lincoln Laboratory ETS, New Mexico MPS 26792
2001 02 16.28135 08 07 07.07 +31 40 29.5 18.8   704 – Lincoln Laboratory ETS, New Mexico MPS 26792
2001 03 18.15033 07 56 32.34 +29 56 36.0 19.4 R 699 – Lowell Observatory-LONEOS MPS 27921
2001 03 18.16135 07 56 32.17 +29 56 33.6   699 – Lowell Observatory-LONEOS MPS 27921
2001 03 18.17230 07 56 32.15 +29 56 31.3   699 – Lowell Observatory-LONEOS MPS 27921
2001 03 18.18322 07 56 32.05 +29 56 27.1   699 – Lowell Observatory-LONEOS MPS 27921
2002 01 13.45622 10 42 33.55 +03 12 22.0 18.7   704 – Lincoln Laboratory ETS, New Mexico MPS 49330
2002 01 13.47162 10 42 33.21 +03 12 20.8 18.9   704 – Lincoln Laboratory ETS, New Mexico MPS 49330
2002 01 13.48703 10 42 32.92 +03 12 18.4 19.4   704 – Lincoln Laboratory ETS, New Mexico MPS 49330
2002 01 13.50243 10 42 32.60 +03 12 16.8 19.3   704 – Lincoln Laboratory ETS, New Mexico MPS 49330
2002 01 13.51785 10 42 32.32 +03 12 14.6 19.3   704 – Lincoln Laboratory ETS, New Mexico MPS 49330
2002 01 19.46125 10 40 25.84 +03 02 27.4 19.2   704 – Lincoln Laboratory ETS, New Mexico MPS 49330
2002 01 19.47655 10 40 25.41 +03 02 25.8 19.3   704 – Lincoln Laboratory ETS, New Mexico MPS 49330
2002 01 19.49185 10 40 25.14 +03 02 26.2 19.3   704 – Lincoln Laboratory ETS, New Mexico MPS 49330
2002 01 19.50718 10 40 24.68 +03 02 22.6 19.4   704 – Lincoln Laboratory ETS, New Mexico MPS 49330
2002 01 19.52249 10 40 24.35 +03 02 22.4 18.9   704 – Lincoln Laboratory ETS, New Mexico MPS 49330
2002 02 11.39006 10 28 52.22 +02 46 44.4 19.2   704 – Lincoln Laboratory ETS, New Mexico MPS 52321
2002 02 11.40460 10 28 51.69 +02 46 44.5 19.2   704 – Lincoln Laboratory ETS, New Mexico MPS 52321
2002 02 11.41933 10 28 51.16 +02 46 44.6 18.9   704 – Lincoln Laboratory ETS, New Mexico MPS 52321
2002 02 11.43377 10 28 50.59 +02 46 44.9 19.5   704 – Lincoln Laboratory ETS, New Mexico MPS 52321
2002 02 11.44872 10 28 50.05 +02 46 44.6 19.5   704 – Lincoln Laboratory ETS, New Mexico MPS 52321
2002 02 14.50895 10 27 00.35 +02 46 57.7 20.8   608 – Haleakala-AMOS MPS 52321
2002 02 14.51906 10 27 00.00 +02 46 57.8 20.7   608 – Haleakala-AMOS MPS 52321
2002 02 14.52957 10 26 59.55 +02 46 58.3 20.7   608 – Haleakala-AMOS MPS 52321
2002 02 16.50912 10 25 47.42 +02 47 19.9 18.6   644 – Palomar Mountain/NEAT MPS 52321
2002 02 16.52075 10 25 46.98 +02 47 20.4 18.7   644 – Palomar Mountain/NEAT MPS 52321
2002 02 16.53122 10 25 46.59 +02 47 20.3 18.8   644 – Palomar Mountain/NEAT MPS 52321
2002 03 06.24068 10 14 57.25 +02 56 29.9 19.3   644 – Palomar Mountain/NEAT MPS 52321
2002 03 06.25116 10 14 56.87 +02 56 30.0 19.3   644 – Palomar Mountain/NEAT MPS 52322
2002 03 06.26160 10 14 56.50 +02 56 30.7 19.4   644 – Palomar Mountain/NEAT MPS 52322
2002 03 12.22870 10 11 30.94 +03 00 52.8 19.3   704 – Lincoln Laboratory ETS, New Mexico MPS 52322
2002 03 12.24731 10 11 30.34 +03 00 52.8 19.4   704 – Lincoln Laboratory ETS, New Mexico MPS 52322
2002 03 12.26601 10 11 29.70 +03 00 52.8 19.4   704 – Lincoln Laboratory ETS, New Mexico MPS 52322
2002 03 12.28457 10 11 29.08 +03 00 53.8 19.3   704 – Lincoln Laboratory ETS, New Mexico MPS 52322
2002 03 12.30328 10 11 28.40 +03 00 54.8 19.6   704 – Lincoln Laboratory ETS, New Mexico MPS 52322
2002 03 14.28804 10 10 23.27 +03 02 23.4 18.7   644 – Palomar Mountain/NEAT MPS 52322
2002 03 14.30942 10 10 22.57 +03 02 24.4 18.9   644 – Palomar Mountain/NEAT MPS 52322
2002 03 14.33050 10 10 21.87 +03 02 25.3 18.5   644 – Palomar Mountain/NEAT MPS 52322
2002 03 16.26559 10 09 20.10 +03 03 50.6 19.9   704 – Lincoln Laboratory ETS, New Mexico MPS 52322
2002 03 16.27869 10 09 19.62 +03 03 50.1 19.5   704 – Lincoln Laboratory ETS, New Mexico MPS 52322
2002 03 16.29283 10 09 19.24 +03 03 50.3 19.7   704 – Lincoln Laboratory ETS, New Mexico MPS 52322
2002 03 16.30573 10 09 18.78 +03 03 50.8 19.3   704 – Lincoln Laboratory ETS, New Mexico MPS 52322
2003 03 31.32462 11 58 48.68 -24 49 00.5 19.2   644 – Palomar Mountain/NEAT MPS 75850
2003 03 31.34497 11 58 47.92 -24 48 58.3 19.4   644 – Palomar Mountain/NEAT MPS 75850
2003 03 31.36628 11 58 47.13 -24 48 55.6 19.2   644 – Palomar Mountain/NEAT MPS 75850
2003 04 29.27837 11 44 28.73 -23 28 54.8 20.6   608 – Haleakala-AMOS MPS 78061
2003 04 29.28940 11 44 28.47 -23 28 52.6 20.8   608 – Haleakala-AMOS MPS 78061
2003 04 29.30023 11 44 28.24 -23 28 50.1 20.7   608 – Haleakala-AMOS MPS 78061
2008 09 07.29359 22 17 47.32 -02 40 51.9 19.4 V 703 – Catalina Sky Survey MPS 255750
2008 09 07.30005 22 17 47.11 -02 40 52.1 19.6 V 703 – Catalina Sky Survey MPS 255750
2008 09 07.30652 22 17 46.78 -02 40 53.6 19.5 V 703 – Catalina Sky Survey MPS 255750
2008 09 07.31302 22 17 46.64 -02 40 52.7 19.3 V 703 – Catalina Sky Survey MPS 255750
2008 09 22.22358 22 10 26.22 -02 56 53.7 19.5   704 – Lincoln Laboratory ETS, New Mexico MPS 256526
2008 09 22.24769 22 10 25.54 -02 56 54.8 19.8   704 – Lincoln Laboratory ETS, New Mexico MPS 256526
2008 09 22.25985 22 10 25.27 -02 56 56.1 20.2   704 – Lincoln Laboratory ETS, New Mexico MPS 256526
2008 09 22.27191 22 10 24.90 -02 56 57.2 20.2   704 – Lincoln Laboratory ETS, New Mexico MPS 256526
2008 10 07.21961 22 04 46.48 -03 10 14.8 19.4 V G96 – Mt. Lemmon Survey MPS 259095
2008 10 07.23013 22 04 46.27 -03 10 15.1 19.5 V G96 – Mt. Lemmon Survey MPS 259095
2008 10 07.24059 22 04 46.09 -03 10 15.3 19.4 V G96 – Mt. Lemmon Survey MPS 259095
2008 10 07.25115 22 04 45.91 -03 10 15.6 19.4 V G96 – Mt. Lemmon Survey MPS 259095
2009 08 19.40162 00 03 39.96 +20 36 06.4 19.7 V 703 – Catalina Sky Survey MPS 292533
2009 08 19.40851 00 03 39.78 +20 36 07.1 19.7 V 703 – Catalina Sky Survey MPS 292533
2009 08 19.41521 00 03 39.52 +20 36 08.1 19.6 V 703 – Catalina Sky Survey MPS 292533
